Torna al catalogo

ANDESITE

AttivoScienzaSSO
NORAD 45726·PAYLOAD·🇺🇸 United States

Lanciato Jun 13, 2020 da Rocket Lab Launch Complex 1

Loading…

Prossimi Passaggi (prossime 24 ore)

TLE

AggiornatoSource: Space-Track

Epoca: Sep 14, 2026, 00:14 UTC

1 45726U 20037D   26257.00981257  .00002272  00000-0  15997-3 0  9997
2 45726  97.7833  90.7766 0007856 222.5313 137.5306 15.06063850339039

Traccia ANDESITE in tempo reale con AllMySat

Download on the App Store